TimeCDT,TemperatureF,Dew PointF,Humidity,Sea Level PressureIn,VisibilityMPH,Wind Direction,Wind SpeedMPH,Gust SpeedMPH,PrecipitationIn,Events,Conditions,WindDirDegrees,DateUTC
12:53 AM,55.0,46.9,74,30.25,10.0,Calm,Calm,-,N/A,,Clear,0,2013-08-04 05:53:00
1:53 AM,52.0,46.0,80,30.24,10.0,ESE,4.6,-,N/A,,Clear,110,2013-08-04 06:53:00
2:53 AM,54.0,46.0,75,30.23,10.0,Calm,Calm,-,N/A,,Clear,0,2013-08-04 07:53:00
3:53 AM,54.0,46.9,77,30.20,10.0,ESE,5.8,-,N/A,,Clear,120,2013-08-04 08:53:00
4:53 AM,57.0,48.0,72,30.20,10.0,SE,6.9,-,N/A,,Clear,130,2013-08-04 09:53:00
5:53 AM,55.9,46.9,72,30.21,10.0,SE,3.5,-,N/A,,Clear,140,2013-08-04 10:53:00
6:53 AM,55.9,46.9,72,30.20,10.0,SE,4.6,-,N/A,,Clear,130,2013-08-04 11:53:00
7:53 AM,59.0,48.0,67,30.19,10.0,SE,9.2,-,N/A,,Clear,130,2013-08-04 12:53:00
8:53 AM,61.0,48.9,64,30.18,10.0,SE,6.9,-,N/A,,Overcast,130,2013-08-04 13:53:00
9:53 AM,64.9,50.0,58,30.19,10.0,SSE,9.2,-,N/A,,Mostly Cloudy,150,2013-08-04 14:53:00
10:53 AM,66.0,50.0,56,30.19,10.0,South,10.4,-,N/A,,Overcast,170,2013-08-04 15:53:00
11:53 AM,69.1,51.1,53,30.18,10.0,South,11.5,-,N/A,,Overcast,180,2013-08-04 16:53:00
12:53 PM,71.1,51.1,49,30.15,10.0,SSE,6.9,-,N/A,,Overcast,160,2013-08-04 17:53:00
1:53 PM,73.0,51.1,46,30.13,10.0,South,8.1,-,N/A,,Overcast,170,2013-08-04 18:53:00
2:53 PM,75.0,52.0,44,30.09,10.0,SE,9.2,-,N/A,,Mostly Cloudy,140,2013-08-04 19:53:00
3:53 PM,75.9,53.1,45,30.06,10.0,SSE,10.4,-,N/A,,Overcast,150,2013-08-04 20:53:00
4:53 PM,73.9,52.0,46,30.04,10.0,SE,15.0,19.6,N/A,,Mostly Cloudy,130,2013-08-04 21:53:00
5:53 PM,73.9,52.0,46,30.02,10.0,SSE,11.5,-,N/A,,Overcast,160,2013-08-04 22:53:00
6:53 PM,73.9,54.0,50,29.99,10.0,South,15.0,23.0,N/A,,Overcast,170,2013-08-04 23:53:00
7:53 PM,72.0,54.0,53,29.97,10.0,SSE,12.7,-,N/A,,Overcast,160,2013-08-05 00:53:00
8:53 PM,71.1,52.0,51,29.96,10.0,SSE,10.4,-,N/A,,Overcast,160,2013-08-05 01:53:00
9:53 PM,70.0,52.0,53,29.98,10.0,South,10.4,-,N/A,,Overcast,180,2013-08-05 02:53:00
10:53 PM,70.0,52.0,53,29.94,10.0,SSE,10.4,-,N/A,,Overcast,160,2013-08-05 03:53:00
11:53 PM,68.0,53.1,59,29.91,10.0,South,9.2,-,N/A,,Partly Cloudy,170,2013-08-05 04:53:00